Location: Nakusp
(50.2330°N, 117.8000°W)
Time: 04:49:03
(UTC-07:00)

Daily predictions for brighter satellites

Satellite Brightness Start Highest point End
(mag) Time Altitude Azimuth Time Altitude Azimuth Time Altitude Azimuth
Cosmos 2221 3.1 00:00:00 10° N 00:04:14 49° ENE 00:05:49 32° SE
Helios 1A Rocket 4.0 00:01:01 10° NE 00:04:38 30° E 00:05:24 28° ESE
Cosmos-2242 4.4 00:03:22 10° NNW 00:07:16 31° W 00:09:14 22° SW
Cosmos 2084 3.4 00:07:32 10° NW 00:11:36 65° SW 00:12:44 44° SSE
H-2A R/B 2.3 00:09:05 10° NNE 00:12:58 62° ESE 00:13:49 47° SSE
Meteor 2-5 Rocket 4.0 00:10:19 31° SSE 00:13:02 61° E 00:18:47 10° NNE
USA 238 DEB 4.0 00:10:53 28° S 00:14:16 49° ESE 00:21:01 10° NE
USA 238 4.1 00:11:01 29° S 00:14:23 48° ESE 00:21:06 10° NE
ALOS 2 2.5 00:15:07 41° S 00:16:38 83° WSW 00:21:04 10° NNW
Cosmos 1850 Rocket 4.1 00:14:44 35° S 00:16:46 59° ESE 00:21:55 10° NNE
COSMOS 2487 3.6 00:17:07 30° ESE 00:17:11 30° ESE 00:20:23 10° NE
Landsat 5 3.2 00:16:35 47° SSE 00:17:40 85° ENE 00:21:41 10° NNW
ISS -1.8 00:20:03 25° E 00:20:03 25° E 00:21:40 10° ENE
Cosmos 1553 Rocket 4.4 00:16:17 10° N 00:22:29 57° ENE 00:26:06 26° SE
Cosmos 1943 4.3 00:19:29 10° WSW 00:24:53 43° NW 00:30:20 10° NNE
Meteor 2-1 Rocket 4.4 00:22:44 10° N 00:28:42 76° ENE 00:31:39 31° SSE
Cosmos 1953 4.2 00:27:42 10° NW 00:30:38 20° W 00:32:05 17° WSW
COSMOS 2455 4.2 00:25:32 10° WSW 00:31:08 39° NW 00:36:46 10° NNE
Cosmos 1544 4.1 00:28:22 10° NNW 00:31:52 37° W 00:32:42 32° WSW
CZ-4C R/B 3.5 00:34:00 21° SE 00:35:10 22° ESE 00:39:36 10° ENE
Cosmos 1733 3.4 00:32:09 10° NNW 00:36:01 59° W 00:36:52 46° SSW
Cosmos 1092 Rocket 4.2 00:32:42 26° SSW 00:36:25 66° WNW 00:42:42 10° N
Lacrosse 4 Rocket 2.2 00:35:04 19° WSW 00:37:41 47° NW 00:41:41 10° NNE
Cosmos 1470 3.5 00:34:44 10° NNW 00:38:27 42° W 00:39:20 35° SW
Lacrosse 5 rocket 3.3 00:36:11 10° WNW 00:39:57 32° N 00:43:54 10° ENE
Cosmos 1408 Rocket 3.9 00:39:17 39° SSE 00:40:38 55° E 00:45:02 10° NNE
Cosmos 1943 Rocket 3.3 00:36:13 10° NW 00:40:56 29° WSW 00:42:50 24° SW
Cosmos 1818 4.1 00:36:22 10° NW 00:41:48 59° NE 00:46:26 14° ESE
Cosmos 468 Rocket 4.1 00:37:52 10° NNW 00:43:11 72° ENE 00:45:53 29° SE
Cosmos 1655 Rocket 4.0 00:41:27 31° S 00:44:40 84° E 00:50:59 10° N
Cosmos 1814 Rocket 4.2 00:39:49 10° NNW 00:45:04 67° ENE 00:47:57 27° SE
SL-27 R/B 3.5 00:45:15 29° WSW 00:46:20 37° WNW 00:49:31 10° N
S3M 4.0 00:40:27 10° N 00:46:48 83° E 00:50:00 31° SSE
Cosmos 1689 Rocket 3.4 00:52:11 30° W 00:52:15 30° W 00:55:10 10° NNW
Cosmos 1140 Rocket 3.9 00:49:58 25° SW 00:53:00 61° WNW 00:58:13 10° NNE
Lacrosse 5 3.0 00:50:16 10° WNW 00:55:08 44° NNE 00:59:59 10° E
Cosmos 1378 3.5 00:58:38 45° SE 00:59:25 56° E 01:03:09 10° NNE
PSLV R/B 4.3 01:01:20 33° SE 01:03:02 60° ENE 01:07:11 10° N
Cosmos 1656 Rocket 4.4 00:58:56 10° NW 01:04:09 38° WSW 01:06:04 30° SSW
Cosmos 2369 3.8 00:58:33 10° NNW 01:04:14 73° ENE 01:07:56 22° SE
Cosmos 1743 Rocket 4.2 01:02:52 34° SE 01:04:19 47° E 01:08:36 10° NNE
CZ-4B R/B 3.1 01:04:51 23° WSW 01:05:19 24° W 01:08:21 10° NW
BREEZE-M DEB (TANK) 3.5 00:53:10 10° WSW 01:07:26 72° SSE 01:11:14 10° E
CZ-2C R/B 2.8 01:04:04 10° NNE 01:09:41 66° ESE 01:12:11 33° S
Cosmos 405 Rocket 2.8 01:09:45 47° SSE 01:10:38 64° E 01:14:25 10° NNE
CZ-2C R/B 3.3 01:10:39 28° SSE 01:13:39 75° ENE 01:19:21 10° NNW
Cosmos 1908 4.4 01:10:25 10° N 01:14:00 35° ENE 01:15:43 23° ESE
Cosmos 1151 Rocket 4.0 01:10:04 10° N 01:14:08 39° ENE 01:16:20 23° SE
Cosmos 1437 Rocket 4.4 01:10:56 10° N 01:14:26 28° ENE 01:16:45 17° ESE
Cosmos 1428 Rocket 4.4 01:11:36 32° S 01:14:43 88° W 01:20:57 10° N
Cosmos 1766 Rocket 3.6 01:16:38 39° SSW 01:18:13 73° WNW 01:22:44 10° N
Cosmos 2228 Rocket 3.1 01:15:30 10° NNW 01:19:55 67° W 01:21:19 41° SSW
Cosmos 1500 Rocket 4.0 01:21:56 33° SSE 01:23:28 50° E 01:27:39 10° NNE
COSMOS 2406 3.8 01:19:45 19° SW 01:23:43 52° NW 01:29:21 10° NNE
Cosmos 1340 4.4 01:24:51 20° WSW 01:26:20 25° WNW 01:29:33 10° N
ASTEX 1 4.3 01:23:27 10° NNE 01:28:12 41° E 01:30:48 23° SE
Cosmos 2278 3.7 01:22:51 10° NNW 01:28:31 70° WSW 01:31:23 30° S
Cosmos 1328 Rocket 3.5 01:25:21 10° NNW 01:29:42 70° W 01:31:09 40° SSW
Cosmos 1763 Rocket 3.5 01:25:53 10° NNW 01:31:15 86° ENE 01:34:20 26° SSE
Cosmos 1707 4.4 01:30:45 20° WSW 01:32:19 25° WNW 01:35:39 10° NNW
SL-8 R/B 4.1 01:30:50 10° W 01:35:20 38° SSW 01:35:54 37° S
NOSS 3-2 (A) 3.6 01:32:26 30° SSW 01:35:36 63° SE 01:42:19 10° NE
Cosmos 2151 4.3 01:34:54 21° SE 01:36:52 31° E 01:40:40 10° NNE
Cosmos 1980 Rocket 3.5 01:31:44 10° NNW 01:37:02 40° NE 01:42:19 10° ESE
Cosmos 1515 Rocket 3.5 01:32:48 10° NNW 01:37:15 74° W 01:38:53 38° S
ATLAS 3B R/B 3.9 01:30:59 10° WSW 01:38:17 45° NNW 01:45:18 10° NE
Helios 1A Rocket 4.3 01:36:18 10° N 01:39:53 30° WNW 01:41:44 21° WSW
Cosmos 1441 Rocket 4.4 01:39:09 26° SE 01:40:39 36° E 01:44:19 10° NNE
Cosmos 2221 4.3 01:38:23 10° NW 01:41:29 19° W 01:42:42 17° WSW
Cosmos 540 Rocket 4.4 01:41:45 10° NNW 01:46:45 45° ENE 01:51:42 10° SE
ERS-2 4.1 01:46:34 10° NE 01:49:29 21° E 01:51:10 16° SE
Meteor 2-20 4.4 01:46:25 29° SSW 01:49:49 83° W 01:56:02 10° N
COSMOS 2487 4.3 01:51:11 18° W 01:52:52 25° WNW 01:55:56 10° N
ISS -3.1 01:52:37 18° W 01:54:54 70° N 01:58:10 10° ENE
Cosmos 2082 Rocket 2.8 01:53:33 25° SSE 01:56:26 46° ESE 02:01:50 10° NE
Meteor 2-2 Rocket 4.3 01:52:11 10° NNW 01:57:49 67° W 02:00:56 27° S
Cosmos 1697 Rocket 2.8 01:53:57 10° NNW 01:59:40 79° ENE 02:05:04 11° SSE
USA 215 3.7 01:54:51 10° ENE 02:01:05 44° SE 02:04:33 25° SSW
Cosmos 405 3.5 01:58:48 10° N 02:02:22 57° ENE 02:04:10 26° SE
USA 238 DEB 4.3 01:58:18 10° WSW 02:05:16 55° NW 02:12:12 10° NE
USA 238 4.3 01:58:24 10° WSW 02:05:21 56° NW 02:12:18 10° NE
Cosmos 1607 4.5 02:01:24 15° WSW 02:06:35 56° NW 02:12:41 10° NE
Cosmos 841 Rocket 3.7 02:01:55 10° NNW 02:07:03 56° WSW 02:09:43 27° S
SL-23 DEB 3.3 02:06:46 19° W 02:09:00 80° N 02:12:12 10° ENE
SS 2 4.4 02:08:53 10° NW 02:11:46 73° SW 02:12:56 35° SSE
Cosmos 1805 Rocket 4.3 02:11:17 22° SSE 02:13:51 47° E 02:18:06 10° NNE
Landsat 4 3.6 02:12:35 35° S 02:14:01 68° WSW 02:17:47 10° NNW
Cosmos 1833 Rocket 3.2 02:10:56 23° S 02:14:11 49° ESE 02:19:36 10° NE
SL-16 R/B 4.3 02:09:52 10° ESE 02:15:14 31° ENE 02:20:37 10° N
Cosmos 2315 Rocket 4.1 02:09:36 10° NNW 02:15:53 62° W 02:19:47 24° SSW
Meteor 1-21 Rocket 4.4 02:13:23 25° SSW 02:16:44 63° WNW 02:22:24 10° N
Lacrosse 4 Rocket 4.2 02:15:43 10° NW 02:17:27 12° NNW 02:19:12 10° N
Lacrosse 5 rocket 2.7 02:15:52 10° NW 02:19:58 44° NNE 02:24:16 10° E
Cosmos 1674 2.6 02:18:46 35° SSW 02:20:14 77° W 02:24:01 10° N
Cosmos 1437 4.5 02:18:31 18° SE 02:20:16 27° E 02:23:10 10° NE
BREEZE-M DEB (TANK) 3.0 02:19:29 12° W 02:21:58 59° SSW 02:29:22 10° ESE
Cosmos 1707 Rocket 3.6 02:18:17 10° N 02:22:42 79° ENE 02:25:36 21° SSE
CZ-4C R/B 2.3 02:19:10 22° SW 02:22:52 81° NW 02:29:11 10° NE
Iridium 2 3.7 02:22:26 30° S 02:24:14 80° E 02:28:04 10° N
Cosmos 1633 Rocket 4.2 02:22:00 16° SSE 02:25:07 39° E 02:29:15 10° NNE
Cosmos 1818 4.4 02:20:22 10° NW 02:25:07 31° WSW 02:27:01 25° SSW
SL-08 R/B 3.5 02:25:26 15° SSE 02:29:26 79° ENE 02:34:21 10° NNW
Cosmos 1666 Rocket 4.1 02:27:24 20° SSE 02:30:12 51° E 02:34:24 10° NNE
Cosmos 1726 2.5 02:28:09 10° N 02:31:50 61° ENE 02:34:30 17° SSE
Cosmos 332 Rocket 4.0 02:27:05 10° NNW 02:31:55 72° ENE 02:36:42 10° SSE
Timation 2 Rocket 4.3 02:27:22 20° SW 02:32:18 72° NW 02:39:07 10° NNE
SL-16 R/B 3.5 02:27:45 10° NNW 02:33:10 42° NE 02:38:31 10° ESE
PSLV R/B 3.8 02:33:22 10° N 02:38:04 74° WNW 02:40:49 24° SSW
Lacrosse 5 1.8 02:33:21 10° WNW 02:38:26 79° SW 02:43:30 10° SE
USA 161 3.1 02:36:57 12° SE 02:38:44 26° ENE 02:40:48 10° N
NOSS 3-2 (C) 3.7 02:34:23 18° SW 02:39:15 74° NW 02:46:13 10° NE
Cosmos 1271 Rocket 4.4 02:37:39 10° N 02:41:09 32° ENE 02:44:35 10° SE
Cosmos 1745 Rocket 4.2 02:36:30 16° S 02:41:40 70° E 02:48:00 10° NNE
Nadezhda 1 Rocket 4.0 02:39:45 10° N 02:46:01 86° ENE 02:52:05 10° S
Meteor 1-11 4.4 02:42:29 17° S 02:46:58 73° E 02:52:48 10° NNE
Cosmos 1656 4.3 02:42:54 10° NW 02:48:10 39° WSW 02:51:42 19° SSW
IRAS Rocket 4.2 02:42:37 10° NNE 02:48:10 82° WNW 02:52:06 20° SSW
Cosmos 2322 Rocket 3.0 02:43:02 10° NNW 02:48:37 55° NE 02:54:07 10° SE
Genesis I 3.9 02:45:16 10° NW 02:48:54 34° WSW 02:50:30 24° SSW
CZ-2C R/B 4.3 02:45:02 10° N 02:49:30 25° WNW 02:53:43 11° WSW
CENTAUR R/B 3.2 02:45:04 18° S 02:49:32 46° ESE 02:56:07 10° NE
ARIANE 5 R/B 4.1 02:46:09 10° NNE 02:50:39 30° E 02:55:06 10° SSE
Cosmos 1437 Rocket 3.9 02:47:19 10° NNW 02:50:44 28° W 02:52:12 22° SW
Cosmos 1151 Rocket 4.4 02:48:05 10° NW 02:51:29 23° W 02:53:10 18° WSW
Cosmos 1626 4.3 02:51:46 10° SE 02:54:41 22° E 02:57:37 10° NE
IRS-P3 4.1 02:54:22 10° NNE 02:59:43 78° WNW 03:03:47 18° SSW
COS B Rocket 4.0 02:59:49 10° NW 03:01:33 17° W 03:01:50 17° W
Cosmos 1867 3.7 02:58:41 17° SW 03:02:54 71° NW 03:08:25 10° NE
ATLAS CENTAUR R/B 4.5 03:06:34 10° NNW 03:10:29 23° NNE 03:14:13 10° ENE
Sich 1 3.1 03:07:35 18° SSW 03:10:50 74° WNW 03:15:16 10° N
Aureole 1 Rocket 4.1 03:07:33 10° NW 03:11:18 31° WSW 03:14:51 15° SSW
Resurs 1-4 Rocket 3.5 03:06:44 10° NNE 03:11:33 34° E 03:16:20 10° SSE
Cosmos 2151 4.2 03:11:31 16° WSW 03:14:12 29° WNW 03:17:57 10° N
Cosmos 1862 Rocket 3.8 03:10:38 10° N 03:15:09 77° E 03:19:37 10° SSE
Cosmos 1300 3.6 03:12:12 10° NNW 03:15:39 32° W 03:17:51 18° SW
Cosmos 1980 Rocket 2.6 03:15:48 10° NW 03:21:06 43° WSW 03:26:24 10° S
Cosmos 2360 Rocket 3.7 03:16:31 10° NNW 03:21:51 41° NE 03:27:09 10° ESE
ERS-2 3.1 03:19:57 10° N 03:23:25 36° WNW 03:26:02 15° SW
Cosmos 371 Rocket 3.4 03:20:39 10° NNW 03:25:28 60° WSW 03:30:13 10° S
Cosmos 2344 4.1 03:18:26 11° WSW 03:25:58 70° NW 03:35:41 10° NE
Cosmos 2242 Rocket 4.2 03:22:28 10° NNW 03:26:37 40° W 03:30:10 13° SSW
Cosmos 2058 3.9 03:24:45 15° SW 03:27:41 33° WNW 03:31:31 10° N
Cosmos 540 Rocket 4.4 03:23:42 10° NW 03:28:11 30° W 03:32:14 12° SSW
BREEZE-M DEB (TANK) 4.0 03:16:59 10° WSW 03:28:11 60° S 03:31:57 10° ESE
ISS -3.3 03:28:12 10° WNW 03:31:29 83° NNE 03:34:46 10° ESE
Cosmos 2181 Rocket 4.0 03:27:29 10° N 03:33:40 90° E 03:39:51 10° S
Cosmos 1869 3.3 03:30:52 10° N 03:34:52 89° E 03:38:50 10° S
Abrixas 3.5 03:33:54 16° SW 03:35:54 33° SSE 03:38:44 10° E
AQUA 4.2 03:31:35 10° N 03:36:12 50° WNW 03:40:24 12° SW
UNKNOWN OBJECT B 4.2 03:35:59 10° NNE 03:39:27 34° E 03:42:57 10° SSE
Cosmos 2082 Rocket 3.2 03:35:25 10° WSW 03:40:40 38° NW 03:45:58 10° NNE
Cosmos 1697 Rocket 4.1 03:39:01 10° NW 03:42:59 20° W 03:46:45 11° SW
NPP 4.3 03:38:28 10° N 03:43:33 43° WNW 03:48:30 10° SW
Cosmos 1455 2.2 03:39:50 10° NNW 03:43:38 61° W 03:47:22 10° S
USA 215 3.4 03:37:52 10° ENE 03:44:25 78° NNW 03:50:56 10° WSW
SL-14 R/B 4.2 03:41:28 13° SW 03:44:30 33° WNW 03:48:01 10° N
CZ-2D R/B 2.6 03:39:49 10° NNE 03:45:00 60° ESE 03:50:12 10° S
Cosmos 1933 3.7 03:44:13 10° N 03:48:16 67° E 03:52:16 10° SSE
Cosmos 304 Rocket 4.1 03:44:09 10° NNW 03:49:00 73° ENE 03:53:50 10° SSE
Spot 4 Rocket 4.2 03:46:58 10° N 03:52:05 65° WNW 03:57:09 10° SSW
COSMOS 2428 4.4 03:48:25 10° NNW 03:53:44 38° NE 03:59:00 10° ESE
Cosmos 1703 4.0 03:54:32 10° SW 03:58:17 39° WNW 04:02:02 10° N
Cosmos 1833 Rocket 3.7 03:53:06 10° WSW 03:58:17 36° NW 04:03:30 10° NNE
SL-16 R/B 2.7 03:52:20 10° S 03:58:31 61° WSW 04:04:45 10° NNW
Lacrosse 5 rocket 1.5 03:55:08 10° WNW 03:59:28 62° SW 04:03:57 10° SE
Cosmos 1633 Rocket 4.4 03:59:19 10° SW 04:03:03 26° WNW 04:06:47 10° NNW
Cosmos 968 Rocket 3.6 03:58:35 10° SSW 04:03:41 68° WNW 04:08:50 10° NNE
Cosmos 923 Rocket 4.1 03:59:27 10° NNW 04:04:40 59° WSW 04:09:48 10° S
Cosmos 1726 4.3 04:05:15 10° WNW 04:06:42 12° W 04:08:10 10° WSW
Meteor 1-4 Rocket 3.7 04:04:55 10° NNW 04:08:07 27° W 04:11:20 10° SSW
EO 1 Del DPAF 4.2 04:04:47 10° SSW 04:08:17 31° W 04:11:48 10° NNW
ADEOS 4.3 04:03:49 10° N 04:08:42 41° WNW 04:13:35 10° SW
Cosmos 1703 Rocket 3.5 04:05:04 10° NNW 04:09:29 75° W 04:13:49 10° S
USA 129 2.7 04:09:35 11° WSW 04:09:51 11° W 04:10:18 10° WNW
CZ-4C R/B 3.9 04:07:09 10° W 04:12:20 31° NNW 04:18:10 10° NE
ATLAS 5 CENTAUR R/B 3.5 04:10:45 10° S 04:14:57 29° ESE 04:19:26 10° ENE
Cosmos 1680 Rocket 3.6 04:10:34 10° NNW 04:15:43 60° WSW 04:20:50 10° S
SL-16 R/B 2.7 04:12:00 10° NW 04:17:17 41° WSW 04:22:33 10° S
Cosmos 2074 Rocket 4.3 04:11:42 10° S 04:17:54 77° E 04:24:10 10° NNE
Cosmos 2184 Rocket 4.3 04:12:05 10° S 04:18:26 75° E 04:24:47 10° NNE
